This is the latest recevied weather packets stored in our database for station/object KB3GVC-13. If no packets are shown the sender has not sent any weather packets the latest 10 day(s).
| Time | Temp. | Humidity | Pressure | Rain* | Wind** | Luminosity | Snow |
|---|---|---|---|---|---|---|---|
| 1778170848 | 16.67° C | 48% | 1012.3 hPa | 0 mm | - | - | - |
| 1778170544 | 16.11° C | 53% | 1012.4 hPa | 0 mm | - | - | - |
| 1778170240 | 15.56° C | 52% | 1012.4 hPa | 0 mm | - | - | - |
| 1778169936 | 15° C | 60% | 1012.7 hPa | 0 mm | - | - | - |
| 1778169633 | 15° C | 61% | 1012.6 hPa | 0 mm | - | - | - |
| 1778169328 | 14.44° C | 59% | 1012.6 hPa | 0 mm | - | - | - |
| 1778169026 | 14.44° C | 59% | 1012.4 hPa | 0 mm | - | - | - |
| 1778168722 | 13.89° C | 59% | 1012.4 hPa | 0 mm | - | - | - |
| 1778168420 | 13.89° C | 60% | 1012.5 hPa | 0 mm | - | - | - |
| 1778168116 | 13.89° C | 60% | 1012.7 hPa | 0 mm | - | - | - |
| 1778167812 | 13.89° C | 62% | 1012.8 hPa | 0 mm | - | - | - |
| 1778167508 | 14.44° C | 62% | 1012.9 hPa | 0 mm | - | - | - |
| 1778167205 | 13.89° C | 60% | 1013 hPa | 0 mm | - | - | - |
| 1778166901 | 13.89° C | 61% | 1013 hPa | 0 mm | - | - | - |
| 1778166598 | 14.44° C | 63% | 1013.2 hPa | 0 mm | - | - | - |
| 1778166295 | 13.89° C | 63% | 1013.1 hPa | 0 mm | - | - | - |
| 1778165991 | 13.89° C | 64% | 1013.3 hPa | 0 mm | - | - | - |
| 1778165687 | 13.33° C | 63% | 1013.1 hPa | 0 mm | - | - | - |
| 1778165385 | 13.89° C | 65% | 1013.2 hPa | 0 mm | - | - | - |
| 1778165081 | 13.33° C | 65% | 1013.2 hPa | 0 mm | - | - | - |
| 1778164778 | 13.33° C | 67% | 1013.2 hPa | 0 mm | - | - | - |
| 1778164476 | 13.33° C | 65% | 1013.4 hPa | 0 mm | - | - | - |
| 1778164172 | 13.33° C | 66% | 1013.5 hPa | 0 mm | - | - | - |
| 1778163868 | 13.89° C | 68% | 1013.6 hPa | 0 mm | - | - | - |
| 1778163565 | 13.33° C | 68% | 1013.6 hPa | 0 mm | - | - | - |
* Rain latest hour (hover to see other rain measurements)
** Current wind speed in m/s (hover to see current wind gust speed)